STARLINK-1977 (47575 NORAD) Tracking and Keplerian Element Data
This shows tracking and keplerian element data for the satellite.
Feedback or suggestion? Click here.
Element | Value |
Catalog | 47575 |
Name | STARLINK-1977 |
Epoch Orbit | 1155 |
Epoch Day | 106.25002315 |
Epoch Year | 2021 |
RAAN | 150.2275 |
Inclination | 53.0527 |
Eccentricity | 0.0001049 |
Argument of Perigee | 69.4051 |
Mean Anonmoly | 186.4416 |
Mean Motion | 15.06402977 |
Decay Rate | -0.0002582 |
L1 | 1 47575U 21009AD 21106.25002315 -.00025820 00000-0 -17207-2 0 9996 |
L2 | 2 47575 53.0527 150.2275 0001049 69.4051 186.4416 15.06402977 11556 |
Live tracking and technical data element details for STARLINK-1977 (NORAD 47575). STARLINK-1977 can be tracked NOW for your location showing map with azimuth and elevation plus other details from your city location.
Track the satellite on the map from your city or location and see movement details for azimuth, elevation, latitude, longitude, range, height, and movement on the map or in text.
IsCatalogInMostPopularTable: catalog: 47575, numindb: 19
Update: records affected: 1
GetName: 47575 STARLINK-1977
Hit Count: updated at: Fri, 16 Apr 2021 11:41:25 GMT